User: anonymous   Login
Location: Brunembert
(50.7122°N, 1.8935°E)
Time: 05:25:24
(UTC+00:00)
Language:

BREEZE-M DEB (TANK) - Orbit

View from above orbital plane
View from above orbital plane
View from above satellite
View from above satellite

Ground track
Ground track

The orbit data is extracted from the following two-line orbital elements,

1 38246U 12016B   21170.69395775  .00001262  00000-0  27632-3 0  9999
2 38246  49.6030 356.7007 5094525 142.3375 267.6083  5.44478067180501
Epoch (UTC): 19 June 2021 16:39:17
Eccentricity: 0.5094525
inclination: 49.6030°
perigee height: 317 km
apogee height: 14223 km
right ascension of ascending node: 356.7007°
argument of perigee: 142.3375°
revolutions per day: 5.44478067
mean anomaly at epoch: 267.6083°
orbit number at epoch: 18050

The dashed part of the orbit path shows where the satellite is in the earth's shadow,  

DLR